TimeCST,TemperatureF,Dew PointF,Humidity,Sea Level PressureIn,VisibilityMPH,Wind Direction,Wind SpeedMPH,Gust SpeedMPH,PrecipitationIn,Events,Conditions,WindDirDegrees,DateUTC
12:13 AM,26.6,26.6,100,29.59,3.0,WNW,6.9,-,N/A,,Overcast,300,2012-12-16 06:13:00
12:54 AM,24.8,24.8,100,29.60,3.0,WNW,11.5,-,N/A,,Overcast,290,2012-12-16 06:54:00
1:13 AM,23.0,23.0,100,29.61,2.5,WNW,10.4,-,N/A,,Overcast,300,2012-12-16 07:13:00
1:33 AM,21.2,21.2,100,29.62,2.5,WNW,11.5,-,N/A,,Overcast,290,2012-12-16 07:33:00
1:54 AM,21.2,21.2,100,29.62,2.5,WNW,10.4,-,N/A,,Overcast,300,2012-12-16 07:54:00
2:13 AM,21.2,19.4,93,29.63,3.0,WNW,8.1,-,N/A,,Overcast,290,2012-12-16 08:13:00
2:54 AM,19.4,17.6,93,29.64,4.0,WNW,9.2,-,N/A,,Overcast,290,2012-12-16 08:54:00
3:13 AM,17.6,17.6,100,29.64,4.0,NW,10.4,-,N/A,,Overcast,310,2012-12-16 09:13:00
3:33 AM,17.6,15.8,93,29.65,4.0,NW,11.5,-,N/A,,Overcast,310,2012-12-16 09:33:00
3:54 AM,15.8,15.8,100,29.65,4.0,NW,10.4,-,N/A,,Overcast,310,2012-12-16 09:54:00
4:13 AM,15.8,15.8,100,29.66,4.0,NW,9.2,-,N/A,,Overcast,310,2012-12-16 10:13:00
4:33 AM,15.8,15.8,100,29.67,4.0,WNW,6.9,-,N/A,,Overcast,300,2012-12-16 10:33:00
4:53 AM,15.8,14.0,93,29.68,5.0,NW,9.2,-,N/A,,Overcast,320,2012-12-16 10:53:00
5:13 AM,15.8,12.2,86,29.69,5.0,NW,9.2,-,N/A,,Overcast,310,2012-12-16 11:13:00
5:34 AM,14.0,12.2,93,29.70,5.0,NW,9.2,-,N/A,,Overcast,310,2012-12-16 11:34:00
5:53 AM,14.0,12.2,93,29.71,7.0,NW,8.1,-,N/A,,Overcast,310,2012-12-16 11:53:00
6:14 AM,12.2,12.2,100,29.71,7.0,NW,9.2,-,N/A,,Overcast,310,2012-12-16 12:14:00
6:34 AM,12.2,12.2,100,29.71,7.0,NNW,6.9,-,N/A,,Overcast,330,2012-12-16 12:34:00
6:53 AM,12.2,12.2,100,29.71,7.0,NW,11.5,-,N/A,,Overcast,310,2012-12-16 12:53:00
7:14 AM,12.2,10.4,92,29.72,7.0,NNW,8.1,-,N/A,,Overcast,330,2012-12-16 13:14:00
7:34 AM,12.2,10.4,92,29.72,7.0,NNW,9.2,-,N/A,,Overcast,330,2012-12-16 13:34:00
7:53 AM,12.2,10.4,92,29.72,7.0,NNW,8.1,-,N/A,,Overcast,330,2012-12-16 13:53:00
8:34 AM,12.2,12.2,100,29.72,7.0,NNW,9.2,-,N/A,,Overcast,330,2012-12-16 14:34:00
8:53 AM,12.2,12.2,100,29.73,10.0,NNW,10.4,-,N/A,,Overcast,330,2012-12-16 14:53:00
9:14 AM,14.0,12.2,93,29.73,10.0,NNW,6.9,-,N/A,,Overcast,330,2012-12-16 15:14:00
9:34 AM,14.0,12.2,93,29.74,10.0,NNW,3.5,-,N/A,,Overcast,330,2012-12-16 15:34:00
9:53 AM,15.8,12.2,86,29.74,10.0,NNW,9.2,-,N/A,,Overcast,340,2012-12-16 15:53:00
10:14 AM,15.8,14.0,93,29.74,10.0,NNW,6.9,-,N/A,,Overcast,340,2012-12-16 16:14:00
10:33 AM,15.8,15.8,100,29.75,10.0,NW,6.9,-,N/A,,Overcast,320,2012-12-16 16:33:00
10:53 AM,15.8,15.8,100,29.75,10.0,NNW,9.2,-,N/A,,Overcast,330,2012-12-16 16:53:00
11:14 AM,17.6,15.8,93,29.74,10.0,NNW,8.1,-,N/A,,Overcast,340,2012-12-16 17:14:00
11:33 AM,17.6,15.8,93,29.74,10.0,NNW,8.1,-,N/A,,Overcast,330,2012-12-16 17:33:00
11:53 AM,17.6,15.8,93,29.74,10.0,NNW,8.1,-,N/A,,Overcast,330,2012-12-16 17:53:00
12:33 PM,17.6,15.8,93,29.73,10.0,NNW,9.2,-,N/A,,Overcast,340,2012-12-16 18:33:00
12:53 PM,17.6,15.8,93,29.73,10.0,North,9.2,-,N/A,,Overcast,350,2012-12-16 18:53:00
1:13 PM,17.6,15.8,93,29.73,10.0,NW,8.1,-,N/A,,Overcast,320,2012-12-16 19:13:00
1:33 PM,17.6,15.8,93,29.73,10.0,NNW,6.9,-,N/A,,Overcast,330,2012-12-16 19:33:00
1:53 PM,17.6,17.6,100,29.73,10.0,NW,6.9,-,N/A,,Overcast,320,2012-12-16 19:53:00
2:13 PM,19.4,17.6,93,29.73,10.0,NNW,5.8,-,N/A,,Overcast,340,2012-12-16 20:13:00
2:34 PM,17.6,15.8,93,29.73,10.0,North,8.1,-,N/A,,Overcast,350,2012-12-16 20:34:00
2:53 PM,17.6,17.6,100,29.73,10.0,North,6.9,-,N/A,,Overcast,350,2012-12-16 20:53:00
3:13 PM,19.4,17.6,93,29.73,10.0,NNW,3.5,-,N/A,,Overcast,340,2012-12-16 21:13:00
3:34 PM,19.4,17.6,93,29.74,10.0,NNW,5.8,-,N/A,,Overcast,340,2012-12-16 21:34:00
3:53 PM,19.4,17.6,93,29.74,10.0,Calm,Calm,-,N/A,,Overcast,0,2012-12-16 21:53:00
4:13 PM,19.4,17.6,93,29.74,10.0,NNW,6.9,-,N/A,,Overcast,330,2012-12-16 22:13:00
4:34 PM,19.4,17.6,93,29.74,10.0,Calm,Calm,-,N/A,,Overcast,0,2012-12-16 22:34:00
4:54 PM,19.4,17.6,93,29.75,10.0,NNW,5.8,-,N/A,,Overcast,340,2012-12-16 22:54:00
5:13 PM,19.4,17.6,93,29.75,10.0,NNW,4.6,-,N/A,,Overcast,340,2012-12-16 23:13:00
5:34 PM,19.4,17.6,93,29.76,10.0,NNW,4.6,-,N/A,,Overcast,340,2012-12-16 23:34:00
5:54 PM,19.4,17.6,93,29.76,10.0,NNW,5.8,-,N/A,,Overcast,340,2012-12-16 23:54:00
6:13 PM,19.4,17.6,93,29.77,10.0,NNW,6.9,-,N/A,,Overcast,340,2012-12-17 00:13:00
6:33 PM,19.4,17.6,93,29.77,10.0,NNW,8.1,-,N/A,,Overcast,330,2012-12-17 00:33:00
6:53 PM,19.4,17.6,93,29.77,10.0,North,6.9,-,N/A,,Overcast,350,2012-12-17 00:53:00
7:14 PM,19.4,17.6,93,29.77,10.0,NNW,5.8,-,N/A,,Overcast,340,2012-12-17 01:14:00
7:33 PM,19.4,17.6,93,29.78,10.0,NNW,3.5,-,N/A,,Overcast,340,2012-12-17 01:33:00
7:53 PM,19.4,17.6,93,29.78,10.0,NNW,5.8,-,N/A,,Overcast,330,2012-12-17 01:53:00
8:14 PM,19.4,17.6,93,29.78,10.0,NW,3.5,-,N/A,,Overcast,320,2012-12-17 02:14:00
8:33 PM,19.4,17.6,93,29.78,10.0,NNW,6.9,-,N/A,,Overcast,340,2012-12-17 02:33:00
8:53 PM,19.4,17.6,93,29.78,10.0,North,3.5,-,N/A,,Overcast,350,2012-12-17 02:53:00
9:14 PM,19.4,17.6,93,29.78,10.0,Calm,Calm,-,N/A,,Overcast,0,2012-12-17 03:14:00
9:33 PM,17.6,17.6,100,29.78,10.0,North,6.9,-,N/A,,Overcast,350,2012-12-17 03:33:00
9:53 PM,17.6,17.6,100,29.78,10.0,North,3.5,-,N/A,,Overcast,350,2012-12-17 03:53:00
10:14 PM,17.6,17.6,100,29.77,10.0,Calm,Calm,-,N/A,,Overcast,0,2012-12-17 04:14:00
10:33 PM,17.6,17.6,100,29.77,10.0,NW,4.6,-,N/A,,Overcast,310,2012-12-17 04:33:00
10:53 PM,17.6,17.6,100,29.77,10.0,Calm,Calm,-,N/A,,Overcast,0,2012-12-17 04:53:00
11:12 PM,17.6,17.6,100,29.77,10.0,NNW,3.5,-,N/A,,Overcast,330,2012-12-17 05:12:00
11:33 PM,17.6,17.6,100,29.77,10.0,Calm,Calm,-,N/A,,Overcast,0,2012-12-17 05:33:00
11:54 PM,17.6,17.6,100,29.78,10.0,NNW,5.8,-,N/A,,Overcast,340,2012-12-17 05:54:00